This demonstration page uses our WeatherBlox Daily Observations layout. Learn more.

Left ArrowRight Arrow

Hourly Observations for August 23, 2020

Temp ( °F °C ) Dew Point ( °F °C ) Humidity (%) Winds ( mph kmh ) Pressure ( in mb ) Visibility ( mi km ) Precip ( " mm )
12:53 am 00:53 Clear 65 18.3 64 17.8 97 97 N N/A 30 1016 7 11.26538 N/A
1:53 am 01:53 Clear with Mist and Fog 65 18.3 64 17.8 97 97 N N/A 29.99 1016 6 9.65604 N/A
2:53 am 02:53 Clear 64 17.8 63 17.2 96 96 N N/A 30 1016 7 11.26538 N/A
3:53 am 03:53 Clear with Mist and Fog 63 17.2 62 16.7 97 97 N N/A 29.99 1016 6 9.65604 N/A
4:53 am 04:53 Clear 65 18.3 64 17.8 97 97 N N/A 30 1016 9 14.48406 N/A
5:53 am 05:53 Clear 66 18.9 65 18.3 96 96 N N/A 30.01 1016 8 12.87472 N/A
6:53 am 06:53 Clear 65 18.3 64 17.8 97 97 N N/A 30.03 1017 7 11.26538 N/A
7:53 am 07:53 Partly Cloudy 66 18.9 65 18.3 96 96 N N/A 30.04 1017 9 14.48406 N/A
8:03 am 08:03 Mostly Cloudy 67 19.4 66 18.9 97 97 N N/A 30.05 1018 9 14.48406 N/A
8:32 am 08:32 Cloudy 71 21.7 68 20 90 90 N N/A 30.04 1017 9 14.48406 N/A
8:44 am 08:44 Cloudy with Mist and Fog 72 22.2 69 20.6 91 91 N N/A 30.04 1017 5 8.0467 N/A
8:53 am 08:53 Cloudy with Mist and Fog 71 21.7 69 20.6 94 94 N N/A 30.06 1018 6 9.65604 N/A
9:16 am 09:16 Mostly Cloudy 72 22.2 69 20.6 91 91 N N/A 30.05 1018 8 12.87472 N/A
9:32 am 09:32 Partly Cloudy 73 22.8 69 20.6 87 87 N N/A 30.05 1018 9 14.48406 N/A
9:53 am 09:53 Mostly Cloudy 73 22.8 69 20.6 87 87 ESE 3 6 30.06 1018 9 14.48406 N/A
10:06 am 10:06 Partly Cloudy 74 23.3 69 20.6 85 85 N N/A 30.06 1018 9 14.48406 N/A
10:13 am 10:13 Mostly Cloudy 74 23.3 69 20.6 85 85 E 3 6 30.06 1018 10 16.0934 N/A
10:22 am 10:22 Mostly Cloudy 74 23.3 69 20.6 85 85 NE 3 6 30.06 1018 10 16.0934 N/A
10:51 am 10:51 Partly Cloudy 75 24 70 21 83 83 N N/A 30.07 1018 10 16.0934 N/A
10:53 am 10:53 Mostly Sunny 77 25 70 21.1 79 79 VRB 3 6 30.07 1018 10 16.0934 N/A
11:53 am 11:53 Sunny 79 26.1 70 21.1 74 74 VRB 6 9 30.07 1018 10 16.0934 N/A
12:53 pm 12:53 Sunny 79 26.1 68 20 69 69 VRB 3 6 30.06 1018 10 16.0934 N/A
1:53 pm 13:53 Sunny 83 28.3 69 20.6 63 63 VRB 3 6 30.05 1018 10 16.0934 N/A
2:53 pm 14:53 Mostly Sunny 85 29.4 68 20 57 57 VRB 6 9 30.03 1017 10 16.0934 N/A
3:53 pm 15:53 Mostly Sunny 85 29.4 68 20 57 57 W 7 11 30.01 1016 10 16.0934 N/A
4:53 pm 16:53 Partly Cloudy 84 28.9 66 18.9 55 55 VRB 3 6 30.01 1016 10 16.0934 N/A
5:53 pm 17:53 Partly Cloudy 85 29.4 68 20 57 57 VRB 7 11 30.01 1016 10 16.0934 N/A
6:06 pm 18:06 Partly Cloudy with Nearby Thunderstorms 86 30 70 21.1 59 59 WSW 8 13 29.98 1015 10 16.0934 N/A
6:24 pm 18:24 Partly Cloudy with Thunderstorms 85 29.4 70 21.1 61 61 VRB 3 6 29.99 1015 10 16.0934 N/A
6:53 pm 18:53 Partly Cloudy with Nearby Thunderstorms 84 28.9 69 20.6 61 61 VRB 3 6 30.01 1016 10 16.0934 N/A
7:17 pm 19:17 Sunny 83 28.3 69 20.6 63 63 VRB 5 7 29.99 1015 10 16.0934 N/A
7:34 pm 19:34 Sunny with Nearby Thunderstorms 81 27.2 70 21.1 69 69 N N/A 29.99 1016 10 16.0934 N/A
7:53 pm 19:53 Sunny 78 25.6 69 20.6 74 74 SSW 3 6 30.01 1016 10 16.0934 N/A
8:53 pm 20:53 Clear 72 22.2 68 20 87 87 N N/A 30.02 1017 10 16.0934 N/A
9:53 pm 21:53 Clear 71 21.7 68 20 90 90 N N/A 30.05 1018 10 16.0934 N/A
10:53 pm 22:53 Clear 69 20.6 68 20 96 96 N N/A 30.06 1018 10 16.0934 N/A
11:53 pm 23:53 Clear 68 20 67 19.4 96 96 N N/A 30.05 1018 10 16.0934 N/A

Powered by AerisWeather